DW1084 Weather Reports


Display with metric or nautical units.
time (UTC)temp
F
wind
direction
speed
MPH
gust
MPH
rain 1hr
in
rain 24hr
in
rain mn
in
humidity
%
barometer
mb
20260510104516 50 287 1.0 0.0 0.00 0.00 0.01 95 1010.6
20260510103054 49 283 1.0 0.0 0.00 0.00 0.01 95 1010.5
20260510101526 49 284 2.0 0.0 0.00 0.00 0.01 95 1010.3
20260510100006 49 282 1.0 0.0 0.00 0.00 0.01 95 1010.0
20260510094556 49 282 1.0 0.0 0.00 0.00 0.00 95 1010.0
20260510093020 48 282 0.0 0.0 0.00 0.00 0.00 95 1009.9
20260510091558 49 282 0.0 0.0 0.00 0.00 0.00 95 1009.8
20260510090035 49 282 1.0 0.0 0.00 0.00 0.00 95 1009.9
20260510084530 49 281 2.0 0.0 0.00 0.00 0.00 95 1010.2
20260510083110 49 325 4.0 0.0 0.00 0.00 0.00 95 1010.3
20260510081534 47 288 4.0 0.0 0.00 0.00 0.00 95 1009.5
20260510080014 45 319 1.0 0.0 0.00 0.00 0.00 94 1009.3
20260510074542 45 319 2.0 0.0 0.00 0.00 0.00 93 1009.3
20260510073029 46 11 0.0 0.0 0.00 0.00 0.00 94 1009.2
20260510071556 46 11 0.0 0.0 0.00 0.00 0.00 94 1009.1
20260510070038 46 11 1.0 0.0 0.00 0.00 0.00 94 1008.9
20260510064512 46 11 0.0 0.0 0.00 0.00 0.00 94 1008.6
20260510063050 46 11 0.0 0.0 0.00 0.00 0.00 94 1008.6
20260510061525 46 11 0.0 0.0 0.00 0.00 0.00 93 1008.7
20260510060006 47 11 0.0 0.0 0.00 0.00 0.00 94 1008.7
20260510054547 47 11 0.0 0.0 0.00 0.00 0.00 93 1008.8
20260510053019 47 11 0.0 0.0 0.00 0.00 0.00 94 1009.0
20260510051558 47 11 0.0 0.0 0.00 0.00 0.00 93 1009.3
20260510050034 48 11 0.0 0.0 0.00 0.00 0.00 93 1009.3
20260510044513 48 11 0.0 0.0 0.00 0.00 0.00 93 1009.2
20260510043048 48 11 0.0 0.0 0.00 0.00 0.00 93 1009.3
20260510041534 49 11 0.0 0.0 0.00 0.00 0.00 93 1009.4
20260510040012 48 11 0.0 0.0 0.00 0.00 0.00 93 1009.5
20260510034539 49 11 0.0 0.0 0.00 0.00 0.01 92 1009.4
20260510033015 50 11 0.0 0.0 0.00 0.00 0.01 93 1009.4
20260510031602 49 11 0.0 0.0 0.00 0.00 0.01 92 1009.3
20260510030036 50 11 0.0 0.0 0.00 0.00 0.01 92 1009.1
20260510024505 51 11 0.0 0.0 0.00 0.00 0.01 92 1009.0
20260510023045 51 11 0.0 0.0 0.00 0.00 0.01 92 1008.9
20260510021521 51 11 0.0 0.0 0.00 0.00 0.01 91 1009.1
20260510020057 52 11 0.0 0.0 0.00 0.00 0.01 91 1009.0
20260510014533 52 15 0.0 0.0 0.00 0.00 0.01 91 1008.8
20260510013012 53 15 0.0 0.0 0.00 0.00 0.01 90 1008.6
20260510011547 53 15 0.0 0.0 0.00 0.00 0.01 89 1008.6
20260510010027 54 15 0.0 0.0 0.00 0.00 0.01 87 1008.4
20260510004508 55 15 0.0 0.0 0.00 0.00 0.01 85 1008.1
20260510003043 56 15 0.0 0.0 0.00 0.00 0.01 84 1008.3
20260510001522 58 15 0.0 0.0 0.00 0.00 0.01 81 1008.1
20260510000055 59 15 0.0 0.0 0.00 0.00 0.01 79 1008.0
20260509234539 60 15 0.0 0.0 0.00 0.00 0.01 77 1008.2
20260509233011 62 15 0.0 0.0 0.00 0.00 0.01 76 1008.0
20260509231556 62 15 0.0 0.0 0.00 0.00 0.01 76 1008.1
20260509230029 63 11 0.0 0.0 0.00 0.00 0.01 76 1008.0
20260509224506 62 99 1.0 0.0 0.00 0.00 0.01 76 1007.9
20260509223045 61 59 0.0 0.0 0.00 0.00 0.01 78 1008.1
20260509221519 61 344 0.0 0.0 0.00 0.00 0.01 77 1008.1
20260509220057 60 343 0.0 0.0 0.00 0.00 0.01 78 1007.9
20260509214535 59 338 2.0 0.0 0.00 0.00 0.01 78 1007.8
20260509213013 59 360 2.0 0.0 0.00 0.00 0.01 79 1008.1
20260509211549 59 348 2.0 0.0 0.00 0.00 0.01 79 1007.9
20260509210029 60 5 3.0 0.0 0.00 0.00 0.01 81 1007.9
20260509204507 59 310 1.0 0.0 0.00 0.00 0.01 81 1008.0
20260509203041 59 302 0.0 0.0 0.00 0.00 0.01 80 1007.9
20260509201522 61 301 2.0 0.0 0.00 0.00 0.00 71 1008.2
20260509200107 61 5 2.0 0.0 0.00 0.00 0.00 71 1008.0
20260509194536 61 350 7.0 0.0 0.00 0.00 0.00 71 1008.2
20260509193013 60 355 6.0 0.0 0.00 0.00 0.00 75 1008.2
20260509191549 59 300 7.0 0.0 0.00 0.00 0.00 74 1008.4
20260509190029 59 305 7.0 0.0 0.00 0.00 0.00 75 1008.7
20260509184504 59 344 6.0 0.0 0.00 0.00 0.00 76 1009.2
20260509183044 59 316 5.0 0.0 0.00 0.00 0.00 72 1009.3
20260509181518 60 337 7.0 0.0 0.00 0.00 0.00 71 1009.3
20260509180109 60 297 6.0 0.0 0.00 0.00 0.00 74 1009.5
20260509174536 60 327 5.0 0.0 0.00 0.00 0.00 75 1009.6
20260509173012 60 314 5.0 0.0 0.00 0.00 0.00 74 1009.6
20260509171546 61 304 4.0 0.0 0.00 0.00 0.00 70 1009.7
20260509170027 61 255 2.0 0.0 0.00 0.00 0.00 68 1009.4
20260509164506 62 141 1.0 0.0 0.00 0.00 0.00 69 1009.6
20260509163049 62 140 0.0 0.0 0.00 0.00 0.00 69 1009.5
20260509161520 62 140 0.0 0.0 0.00 0.00 0.00 70 1009.3
20260509160055 62 140 1.0 0.0 0.00 0.00 0.00 72 1009.5
20260509154541 62 236 1.0 0.0 0.00 0.00 0.00 70 1010.2
20260509153011 62 250 1.0 0.0 0.00 0.00 0.00 70 1010.6
20260509151553 62 265 1.0 0.0 0.00 0.00 0.00 70 1010.5
20260509150028 62 163 1.0 0.0 0.00 0.00 0.00 70 1010.4
20260509144504 62 213 2.0 0.0 0.00 0.00 0.00 68 1010.5
20260509143049 62 119 1.0 0.0 0.00 0.00 0.00 68 1010.4
20260509141531 63 123 3.0 0.0 0.00 0.00 0.00 70 1010.3
20260509134533 62 139 3.0 0.0 0.00 0.00 0.00 73 1010.0
20260509133014 61 136 2.0 0.0 0.00 0.00 0.00 73 1010.0
20260509131546 60 161 2.0 0.0 0.00 0.00 0.00 75 1009.9
20260509130028 60 138 3.0 0.0 0.00 0.00 0.00 77 1010.0
20260509124506 59 128 2.0 0.0 0.00 0.00 0.00 78 1010.0
20260509123050 58 130 1.0 0.0 0.00 0.00 0.00 79 1010.0
20260509121521 57 151 2.0 0.0 0.00 0.00 0.00 81 1010.1
20260509120054 56 142 1.0 0.0 0.00 0.00 0.00 82 1010.1
20260509114539 55 147 0.0 0.0 0.00 0.00 0.00 83 1009.9
20260509113010 54 148 0.0 0.0 0.00 0.00 0.00 84 1009.8
20260509111551 54 148 0.0 0.0 0.00 0.00 0.00 84 1009.8
20260509110029 54 148 0.0 0.0 0.00 0.00 0.00 83 1009.9